Location: Edelsbach
(47.0167°N, 15.6000°E)
Time: 23:49:45
(UTC+00:00)

Iridium 4 Rocket - Pass Details

Date: 08 August 2020
Orbit: 586 x 903 km, 86.9° (Epoch: 23 September)

Event Time Altitude Azimuth Distance (km) Brightness Sun altitude
Exits shadow 20:41:56 29° 88° (E) 1,149 4.1 -19.6°
Maximum altitude 20:42:06 29° 84° (E) 1,146 4.1 -19.6°
Drops below altitude 10° 20:45:48 10° 24° (NNE) 1,956 6.0 -20.0°
Sets 20:48:09 0° 13° (NNE) 2,843 7.1 -20.2°
